Location: Observatoires du Mont Megantic
(45.4500°N, 71.1500°W)
Time: 13:04:16
(UTC-04:00)

Envisat - Visible Passes

Search period start: 22 June 2018 00:00
Search period end: 02 July 2018 00:00
Orbit: 764 x 766 km, 98.2° (Epoch: 22 June)

Date Brightness Start Highest point End Pass type
(mag) Time Alt. Az. Time Alt. Az. Time Alt. Az.
23 Jun 5.5 21:12:02 10° SW 21:15:32 19° W 21:19:05 10° NW visible
25 Jun 6.0 21:40:29 10° W 21:41:28 10° W 21:42:27 10° WNW visible
28 Jun 5.7 21:27:39 10° WSW 21:30:09 14° W 21:32:38 10° WNW visible
01 Jul 5.6 21:15:34 10° SW 21:18:50 17° W 21:22:09 10° NW visible
